Regional Weather Roundup
Issued by NWS Cleveland, OH

Home | Current Version | Previous Version | Graphics & Text | Print | Product List | Glossary On
Versions: 1 2 3 4 5 6 7 8 9 10 11 12 13 14 15 16 17 18 19 20 21 22 23 24 25 26 27 28 29 30 31 32 33 34 35 36 37 38 39 40 41 42 43 44 45 46 47 48 49 50
000
ASUS41 KCLE 290110
RWRCLE
OHIO REGIONAL WEATHER ROUNDUP
NATIONAL WEATHER SERVICE WILMINGTON, OH
900 PM EDT TUE JUL 28 2015

NOTE: "FAIR" INDICATES FEW OR NO CLOUDS BELOW 12,000 FEET WITH NO
SIGNIFICANT WEATHER AND/OR OBSTRUCTIONS TO VISIBILITY.

OHZ001>008-015>018-024>027-034-035-043-044-290200-
   NORTHWEST OHIO

CITY           SKY/WX    TMP DP  RH WIND       PRES   REMARKS
DEFIANCE       PTCLDY    82  66  58 E5        29.95R
FINDLAY        MOCLDY    82  65  56 E10       29.95S
TOLEDO EXPRESS PTCLDY    76  64  66 E3        29.96R
TOLEDO EXEC    PTCLDY    79  65  62 E5        29.96F
LIMA           PTCLDY    77  70  79 E5        29.95F
$$

OHZ009>014-019>023-028>033-038-089-290200-
   NORTHEAST OHIO

CITY           SKY/WX    TMP DP  RH WIND       PRES   REMARKS
CLE-HOPKINS    MOCLDY    81  62  52 NE8       29.99R
CLE-LAKEFRONT  MOCLDY    83  59  44 NE9       29.96S
CUY CO. ARPT   MOCLDY    79  63  57 E9        30.00R
LORAIN-ELYRIA  MOCLDY    78  62  57 NE6       29.98R
ASHTABULA      PTCLDY    74  66  76 CALM      30.00F
AKRON-CANTON   PTCLDY    79  64  60 NE5       29.99R
WOOSTER        PTCLDY    72  68  87 CALM      29.99R
MANSFIELD      MOCLDY    78  67  68 N5        29.99S
YOUNGSTOWN     MOCLDY    78  66  66 NE9       30.00R
$$

OHZ042-051>053-060>062-070>072-077>081-290200-
  SOUTHWEST OHIO

CITY           SKY/WX    TMP DP  RH WIND       PRES   REMARKS
CINC-COVINGTON MOCLDY    86  69  56 CALM      29.94S HX  90
CINC-LUNKEN    PTCLDY    81  76  84 CALM      29.93R
HAMILTON       PTCLDY    80  75  84 CALM      29.93S
DAYTON         MOCLDY    81  71  71 E6        29.96R
WRIGHT-PAT AFB MOCLDY    84  72  67 E3        29.94S
DAYTON GENERAL MOCLDY    82  71  69 MISG      29.94S
WILMINGTON     PTCLDY    79  73  82 E3        29.96R
$$

OHZ036-037-039>041-045>050-054>059-063>069-073>076-082>088-290200-
  CENTRAL AND SOUTHEAST OHIO

CITY           SKY/WX    TMP DP  RH WIND       PRES   REMARKS
COLUMBUS       MOCLDY    82  69  64 E5        29.95R
OSU AIRPORT    MOCLDY    81  69  67 E5        29.96R
BOLTON FIELD   MOCLDY    76  75  96 CALM      29.96S FOG
RICKENBACK AFB MOCLDY    78  72  82 CALM      29.95R
NEWARK         PTCLDY    79  70  74 CALM      29.96R
MARION         MOCLDY    80  72  76 NE6       29.97R
LANCASTER      MOCLDY    77  72  84 E5        29.96R HAZE
ZANESVILLE     CLEAR     80  69  69 CALM      29.96S
NEW PHILLY     PTCLDY    75  70  84 CALM      29.97S
$$


USA.gov is the U.S. government's official web portal to all federal, state and local government web resources and services.